Regional Weather Roundup
Issued by NWS Jackson, KY

Home | Current Version | Previous Version | Text Only | Print | Product List | Glossary On
Versions: 1 2 3 4 5 6 7 8 9 10 11 12 13 14 15 16 17 18 19 20 21 22 23 24 25 26 27 28 29 30 31 32 33 34 35 36 37 38 39 40 41 42 43 44 45 46 47 48 49 50
000
ASUS43 KJKL 021110
RWRJKL

EAST KENTUCKY HOURLY WEATHER ROUNDUP
NATIONAL WEATHER SERVICE JACKSON KY
700 AM EDT TUE JUN 02 2015

NOTE: "FAIR" INDICATES FEW OR NO CLOUDS BELOW 12,000 FEET WITH
NO SIGNIFICANT WEATHER AND/OR OBSTRUCTIONS TO VISIBILITY.

* THESE REPORTS ARE NOT UNDER NWS QUALITY CONTROL AND MAY NOT
  REPORT WEATHER SUCH AS PRECIPITATION AND FOG.

KYZ079-080-083-085-087-088-110-112-115-119-120-021200
...EASTERN KENTUCKY...

CITY           SKY/WX    TMP DP  RH WIND       PRES   REMARKS
JACKSON        FOG       53  52  96 CALM      30.09R VSB 1/4
LONDON         CLOUDY    57  53  86 NE7       30.07S
SOMERSET*      CLOUDY    54  54 100 NE3       30.09S
MONTICELLO*    CLOUDY    57  57 100 E5        30.10R
MIDDLESBORO*   CLOUDY    61  59  94 CALM      30.07R
HARLAN APT*    CLOUDY    59  59 100 CALM      30.07S
HAZARD APT*    CLOUDY    55  55 100 CALM      30.10R FOG
BLACK MTN*       N/A     55  55 100 SW1         N/A
PIKEVILLE APT* FOG       54  54 100 CALM      30.09S VSB 1/2
BIG SANDY*     CLOUDY    54  54  99 CALM      30.09S FOG
MOREHEAD APT*  CLOUDY    54  52  94 CALM      30.12S FOG
$$

KYZ035-036-041-042-044-050-067-078-099-021200
...CENTRAL KENTUCKY...

CITY           SKY/WX    TMP DP  RH WIND       PRES   REMARKS
MT STERLING*   CLOUDY    54  52  94 E5        30.12R
FLEMING/MASON* CLOUDY    52  52 100 N3        30.13R FOG
DANVILLE*      CLOUDY    54  52  94 NE6       30.10R
RICHMOND*      CLOUDY    54  52  94 E3        30.09R
LEXINGTON      CLOUDY    54  52  93 NE9       30.10R
FRANKFORT      CLOUDY    54  52  93 N3        30.10R FOG
$$

KYZ091>093-OHZ055-061-077-WVZ005-015-034-035-042-021200
...SOUTHERN OHIO/WEST VIRGINIA...

CITY           SKY/WX    TMP DP  RH WIND       PRES   REMARKS
COVINGTON      CLOUDY    53  48  83 E6        30.13R
COLUMBUS       CLOUDY    52  48  86 NE7       30.13R
DAYTON         CLOUDY    51  48  89 NE6       30.15R FOG
WILMINGTON     CLOUDY    51  47  86 NE6       30.12R
HUNTINGTON     CLOUDY    53  53 100 N3        30.08S FOG
CHARLESTON     CLOUDY    55  53  93 N5        30.07F FOG
PINEVILLE*     CLOUDY    59  59 100 MISG      30.12S
BECKLEY        FOG       57  56  96 NW5       30.08S VSB 1/4
BLUEFIELD      CLOUDY    63  58  83 W3        30.09R
$$

VAZ002-007-008-TNZ017-027-036-066-071-021200
...SOUTHWEST VIRGINIA/EAST TENNESSEE...

CITY           SKY/WX    TMP DP  RH WIND       PRES   REMARKS
WISE*          FOG       55  55 100 N5        30.10S VSB<1/4
JONESVILLE*    CLOUDY    63  63 100 CALM      30.07R
ABINGDON*      MOCLDY    61  61 100 CALM      30.07R
BRISTOL        FOG       62  62 100 CALM      30.05R VSB 1/4
KNOXVILLE      CLOUDY    63  61  93 CALM      30.03R
OAK RIDGE      CLOUDY    64  62  93 CALM      30.05R
CROSSVILLE     CLOUDY    63  60  90 E3        30.07R
NASHVILLE      CLOUDY    61  59  93 N6        30.07R
$$

...KEY TO REMARKS...
VSB - VISIBILITY IN MILES
WCI - WIND CHILL INDEX
HX  - HEAT INDEX

$$



USA.gov is the U.S. government's official web portal to all federal, state and local government web resources and services.